Monroe, Wisconsin, United States (53566)
Lat: 42.60N, Lon: 89.64W
Wx Zone: WIZ068
Local Info
Past Weather Observations for Today

NOTE: This archive is for the closest National Weather Service station to Monroe. Information may differ from the station used for current weather conditions.

Click here for Long-term Archive

Time Weather Temperature Dewpoint Humidity Pressure Winds Precip Visibility
14:35
Overcast
Light Snow
18°F / -8°C 12°F / -11°C 79% 30.04 in
(1017 mb)
ESE 11.5 mph
(ESE 19 kph)
- 4SM
14:15
Overcast
Light Snow
18°F / -8°C 12°F / -11°C 79% 30.04 in
(1017 mb)
SE 15 mph
(SE 24 kph)
- 4SM
13:55
Overcast
Light Snow
18°F / -8°C 12°F / -11°C 79% 30.06 in
(1018 mb)
SE 13.8 mph
(SE 22 kph)
- 3SM
13:35
Overcast
Light Snow
18°F / -8°C 12°F / -11°C 79% 30.06 in
(1018 mb)
ESE 15 mph
(ESE 24 kph)
- 1 1/4SM
13:15
Overcast
Light Snow
16°F / -9°C 12°F / -11°C 86% 30.06 in
(1018 mb)
SE 13.8 mph
(SE 22 kph)
- 1 1/4SM
12:55
Overcast
Light Snow
16°F / -9°C 12°F / -11°C 86% 30.09 in
(1019 mb)
SE 12.7 mph
(SE 20 kph)
- 1 1/2SM
12:35
Overcast
Light Snow
16°F / -9°C 12°F / -11°C 86% 30.09 in
(1019 mb)
SE 11.5 mph
(SE 19 kph)
- 1SM
12:15
Overcast
Light Snow
14°F / -10°C 12°F / -11°C 92% 30.12 in
(1020 mb)
SE 11.5 mph
(SE 19 kph)
- 1/2SM
11:55
Overcast
Light Snow
14°F / -10°C 12°F / -11°C 92% 30.12 in
(1020 mb)
SE 12.7 mph
(SE 20 kph)
- 3/4SM
11:35
Overcast
Light Snow
14°F / -10°C 10°F / -12°C 85% 30.15 in
(1021 mb)
SE 13.8 mph
(SE 22 kph)
- 1 1/4SM
11:15
Overcast
Light Snow
14°F / -10°C 10°F / -12°C 85% 30.15 in
(1021 mb)
SE 15 mph
(SE 24 kph)
- 2SM
10:55
Overcast
Light Snow
14°F / -10°C 10°F / -12°C 85% 30.15 in
(1021 mb)
SE 13.8 mph
(SE 22 kph)
- 1/2SM
10:35
Overcast
Light Snow
14°F / -10°C 10°F / -12°C 85% 30.15 in
(1021 mb)
SE 17.3 mph
(SE 28 kph)
- 1/2SM
10:15
Overcast
Light Snow
16°F / -9°C 9°F / -13°C 73% 30.18 in
(1022 mb)
SE 17.3 mph
(SE 28 kph)
- 3SM
09:55
Overcast
Light Snow
16°F / -9°C 7°F / -14°C 67% 30.18 in
(1022 mb)
SE 15 mph
(SE 24 kph)
- 10SM
09:35
Overcast
Light Snow
16°F / -9°C 7°F / -14°C 67% 30.15 in
(1021 mb)
SE 13.8 mph
(SE 22 kph)
- 10SM
09:15
Overcast
16°F / -9°C 7°F / -14°C 67% 30.18 in
(1022 mb)
SE 20.7 mph
(SE 33 kph)
- 10SM
08:55
Mostly Cloudy
16°F / -9°C 7°F / -14°C 67% 30.18 in
(1022 mb)
SE 15 mph
(SE 24 kph)
- 10SM
08:35
Partly Cloudy
14°F / -10°C 5°F / -15°C 67% 30.18 in
(1022 mb)
SE 15 mph
(SE 24 kph)
- 10SM
08:15
Partly Cloudy
14°F / -10°C 5°F / -15°C 67% 30.18 in
(1022 mb)
SE 13.8 mph
(SE 22 kph)
- 10SM
07:55
Clear
14°F / -10°C 5°F / -15°C 67% 30.18 in
(1022 mb)
SE 16.1 mph
(SE 26 kph)
- 10SM
07:35
Clear
14°F / -10°C 5°F / -15°C 67% 30.18 in
(1022 mb)
SE 10.4 mph
(SE 17 kph)
- 10SM
07:15
Partly Cloudy
14°F / -10°C 5°F / -15°C 67% 30.21 in
(1023 mb)
ESE 6.9 mph
(ESE 11 kph)
- 10SM
06:55
Mostly Cloudy
12°F / -11°C 5°F / -15°C 73% 30.21 in
(1023 mb)
E 10.4 mph
(E 17 kph)
- 10SM
06:35
Overcast
12°F / -11°C 5°F / -15°C 73% 30.21 in
(1023 mb)
ESE 9.2 mph
(ESE 15 kph)
- 10SM
06:15
Mostly Cloudy
12°F / -11°C 3°F / -16°C 67% 30.24 in
(1024 mb)
SE 10.4 mph
(SE 17 kph)
- 10SM
06:00
Mostly Cloudy
12°F / -11°C 3°F / -16°C 67% 30.24 in
(1024 mb)
SE 9.2 mph
(SE 15 kph)
- 10SM
05:35
Overcast
12°F / -11°C 3°F / -16°C 67% 30.27 in
(1025 mb)
SE 8.1 mph
(SE 13 kph)
- 10SM
05:15
Overcast
12°F / -11°C 3°F / -16°C 67% 30.27 in
(1025 mb)
SE 9.2 mph
(SE 15 kph)
- 10SM
04:55
Overcast
12°F / -11°C 3°F / -16°C 67% 30.27 in
(1025 mb)
SE 10.4 mph
(SE 17 kph)
- 10SM
04:35
Overcast
12°F / -11°C 3°F / -16°C 67% 30.27 in
(1025 mb)
SE 8.1 mph
(SE 13 kph)
- 10SM
04:15
Mostly Cloudy
12°F / -11°C 3°F / -16°C 67% 30.3 in
(1026 mb)
SE 8.1 mph
(SE 13 kph)
- 10SM
03:55
Mostly Cloudy
12°F / -11°C 3°F / -16°C 67% 30.3 in
(1026 mb)
SE 8.1 mph
(SE 13 kph)
- 10SM
03:35
Overcast
12°F / -11°C 3°F / -16°C 67% 30.33 in
(1027 mb)
SE 9.2 mph
(SE 15 kph)
- 10SM
03:15
Overcast
12°F / -11°C 3°F / -16°C 67% 30.33 in
(1027 mb)
SE 8.1 mph
(SE 13 kph)
- 10SM
02:55
Mostly Cloudy
12°F / -11°C 1°F / -17°C 62% 30.33 in
(1027 mb)
SE 9.2 mph
(SE 15 kph)
- 10SM
02:35
Partly Cloudy
10°F / -12°C 1°F / -17°C 67% 30.33 in
(1027 mb)
SE 6.9 mph
(SE 11 kph)
- 10SM
02:15
Overcast
10°F / -12°C 1°F / -17°C 67% 30.36 in
(1028 mb)
SE 6.9 mph
(SE 11 kph)
- 10SM
01:55
Mostly Cloudy
10°F / -12°C 1°F / -17°C 67% 30.36 in
(1028 mb)
SE 6.9 mph
(SE 11 kph)
- 10SM
01:35
Clear
10°F / -12°C 1°F / -17°C 67% 30.36 in
(1028 mb)
ESE 5.8 mph
(ESE 9 kph)
- 10SM
01:15
Clear
10°F / -12°C °F / -18°C 61% 30.36 in
(1028 mb)
ESE 5.8 mph
(ESE 9 kph)
- 10SM
01:00
Clear
10°F / -12°C °F / -18°C 61% 30.36 in
(1028 mb)
ESE 5.8 mph
(ESE 9 kph)
- 10SM
00:35
Clear
9°F / -13°C °F / -18°C 66% 30.39 in
(1029 mb)
SE 6.9 mph
(SE 11 kph)
- 10SM
00:15
Clear
9°F / -13°C °F / -18°C 66% 30.39 in
(1029 mb)
SE 5.8 mph
(SE 9 kph)
- 10SM
Time Weather Temperature Dewpoint Humidity Pressure Winds Precip Visibility


Weather for websites

WeatherForYou.com, LLC is not responsible for any damages or problems caused by this service. Current weather conditions are obtained from the closest station including government and personal stations which may have varying degrees of accuracy. Weather forecasts are derived from the NOAA NDFD. Like all things, this site belongs to Jesus Christ... He just trusts us to maintain it. If you have any questions or comments email webmaster@weatherforyou.com

Copyright © 2016, WeatherForYou.com LLC. All rights reserved.